Photometre #342[Polarized_P] Lille AOT

File : 20190923_342.hum

23/09/2019,06:31:09,TEMP=13.3,BA=5.64,STAT.A=Abs.,ExtBa=12.16
23/09/2019,06:35:14,TEMP=13.6,BA=5.64,STAT.A=Abs.,ExtBa=12.10
23/09/2019,06:39:58,TEMP=13.9,BA=5.64,STAT.A=Abs.,ExtBa=12.08
23/09/2019,06:45:41,TEMP=14.3,BA=5.52,STAT.A=Abs.,ExtBa=12.10
23/09/2019,06:52:34,TEMP=14.5,BA=5.56,STAT.A=Abs.,ExtBa=12.10
23/09/2019,07:01:03,TEMP=15.1,BA=5.64,STAT.A=Abs.,ExtBa=12.06
23/09/2019,07:01:35,TEMP=15.1,BA=5.64,STAT.h
23/09/2019,07:01:48,TEMP=15.1,BA=5.64,STAT.h
23/09/2019,07:11:52,TEMP=15.0,BA=5.64,STAT.B=Abs.,ExtBa=12.10
23/09/2019,07:12:35,TEMP=15.0,BA=5.64,STAT.h
23/09/2019,07:12:47,TEMP=15.0,BA=5.64,STAT.h
23/09/2019,07:17:01,TEMP=14.8,BA=5.64,STAT.A=Abs.,ExtBa=12.12
23/09/2019,07:17:15,TEMP=14.8,BA=5.64,STAT.h
23/09/2019,07:17:27,TEMP=14.8,BA=5.64,STAT.h
23/09/2019,07:22:51,TEMP=14.6,BA=5.64,STAT.A=Abs.,ExtBa=12.12
23/09/2019,07:29:26,TEMP=14.8,BA=5.64,STAT.A=Abs.,ExtBa=12.11
23/09/2019,07:36:59,TEMP=15.0,BA=5.52,STAT.A=Abs.,ExtBa=12.10
23/09/2019,07:45:40,TEMP=15.4,BA=5.64,STAT.C=Abs.,ExtBa=12.12
23/09/2019,07:59:17,TEMP=17.2,BA=5.52,STAT.A=Abs.,ExtBa=12.00
23/09/2019,08:08:04,TEMP=17.6,BA=5.48,STAT.A=Abs.,ExtBa=12.06
23/09/2019,08:22:53,TEMP=18.3,BA=5.64,STAT.A=Abs.,ExtBa=12.08
23/09/2019,08:40:31,TEMP=19.0,BA=5.64,STAT.F
23/09/2019,08:55:29,TEMP=19.9,BA=5.52,STAT.D=Abs.,ExtBa=11.94
23/09/2019,09:10:29,TEMP=19.9,BA=5.64,STAT.D=Abs.,ExtBa=12.04
23/09/2019,09:25:29,TEMP=20.1,BA=5.64,STAT.D=Abs.,ExtBa=12.06
23/09/2019,09:55:30,TEMP=20.1,BA=5.60,STAT.D=Abs.,ExtBa=12.01
23/09/2019,10:10:30,TEMP=19.9,BA=5.64,STAT.D=Abs.,ExtBa=12.05
23/09/2019,10:25:30,TEMP=20.4,BA=5.64,STAT.D=Abs.,ExtBa=12.05
23/09/2019,10:40:31,TEMP=19.2,BA=5.64,STAT.F
23/09/2019,10:55:29,TEMP=19.5,BA=5.60,STAT.D=Abs.,ExtBa=12.00
23/09/2019,11:10:29,TEMP=19.6,BA=5.60,STAT.D=Abs.,ExtBa=12.03
23/09/2019,11:25:30,TEMP=20.8,BA=5.64,STAT.D=Abs.,ExtBa=12.04
23/09/2019,11:40:31,TEMP=22.3,BA=5.60,STAT.F
23/09/2019,11:55:30,TEMP=21.5,BA=5.60,STAT.D=Abs.,ExtBa=12.04
23/09/2019,12:10:30,TEMP=21.1,BA=5.60,STAT.D=Abs.,ExtBa=12.05
23/09/2019,12:25:27,TEMP=22.5,BA=5.60,STAT.D=Abs.,ExtBa=12.03
23/09/2019,12:40:31,TEMP=23.1,BA=5.60,STAT.F
23/09/2019,12:55:30,TEMP=21.5,BA=5.60,STAT.D=Abs.,ExtBa=12.05
23/09/2019,13:10:30,TEMP=22.1,BA=5.56,STAT.D=Abs.,ExtBa=12.02
23/09/2019,13:25:30,TEMP=23.3,BA=5.56,STAT.D=Abs.,ExtBa=12.01
23/09/2019,13:40:31,TEMP=24.4,BA=5.56,STAT.F
23/09/2019,13:55:27,TEMP=24.2,BA=5.52,STAT.D=Abs.,ExtBa=11.97
23/09/2019,14:10:26,TEMP=22.3,BA=5.52,STAT.D=Abs.,ExtBa=11.97
23/09/2019,14:25:29,TEMP=22.7,BA=5.52,STAT.D=Abs.,ExtBa=12.00
23/09/2019,14:40:31,TEMP=22.8,BA=5.52,STAT.F
23/09/2019,14:58:08,TEMP=22.6,BA=5.48,STAT.A=Abs.,ExtBa=11.90
23/09/2019,15:12:58,TEMP=22.8,BA=5.56,STAT.A=Abs.,ExtBa=12.01
23/09/2019,15:25:08,TEMP=22.8,BA=5.56,STAT.A=Abs.,ExtBa=12.02
23/09/2019,15:35:21,TEMP=21.6,BA=5.56,STAT.C=Abs.,ExtBa=12.03
23/09/2019,15:49:25,TEMP=22.0,BA=5.48,STAT.A=Abs.,ExtBa=11.74
23/09/2019,15:51:34,TEMP=21.6,BA=5.44,STAT.A=Abs.,ExtBa=11.93
23/09/2019,15:58:09,TEMP=20.8,BA=5.44,STAT.A=Abs.,ExtBa=11.98
23/09/2019,16:03:59,TEMP=20.4,BA=5.48,STAT.A=Abs.,ExtBa=11.98
23/09/2019,16:09:10,TEMP=20.2,BA=5.48,STAT.B=Abs.,ExtBa=11.98
23/09/2019,16:19:57,TEMP=19.8,BA=5.44,STAT.A=Abs.,ExtBa=12.01
23/09/2019,16:28:26,TEMP=19.5,BA=5.48,STAT.A=Abs.,ExtBa=12.02
23/09/2019,16:35:19,TEMP=19.3,BA=5.48,STAT.A=Abs.,ExtBa=12.01
23/09/2019,16:40:59,TEMP=19.2,BA=5.48,STAT.A=Abs.,ExtBa=12.00
23/09/2019,16:45:44,TEMP=19.1,BA=5.48,STAT.A=Abs.,ExtBa=12.00
23/09/2019,16:49:51,TEMP=19.1,BA=5.48,STAT.A=Abs.,ExtBa=12.02